Terminal Aerodrome Forecast
Issued by NWS

Home | Current Version | Previous Version | Graphics & Text | Print | Product List | Glossary On
Versions: 1 2 3 4 5 6 7 8 9 10 11 12 13 14 15 16 17 18 19 20 21 22
000
FTUS42 KMHX 310542
TAFOAJ
TAF
KOAJ 310542Z 3106/0106 VRB03KT P6SM SCT008 BKN100
     FM310930 00000KT 3SM BR OVC006
     FM311200 05005KT 5SM -SHRA SCT008 OVC025
     FM311900 06008KT P6SM VCSH SCT025 OVC050
      AMD LTD TO CLD VIS AND WIND=

USA.gov is the U.S. government's official web portal to all federal, state and local government web resources and services.